RH
19 25 26 32 34 23 20 18 14 13 11 10 7 5 6 5 7 6 9 14 12 26 31 29 30 23 24 27 25 28 37 39 40 45 57 75 69 57 60 62 67 75 78 85 79 63 61 53 44 41 40 40 42 51 64 76 79 78 78 79 80 83 87 90 90 85 81 79 74 65 52 44 44 47 49 53 53 57 76 87 86 84 82 83 88 92 92 89 89 89 90 91 90 89 90 90 91
32 29 26 32 30 23 18 15 13 10 8 8 6 4 6 6 7 8 14 21 25 37 37 35 35 31 36 36 31 31 43 51 54 59 71 78 68 65 67 69 71 75 80 84 80 77 76 53 42 46 43 42 41 44 53 68 77 78 78 80 81 83 83 82 79 74 73 70 63 53 46 47 55 65 73 79 69 59 72 85 88 88 85 84 86 88 90 90 89 87 89 89 88 88 90 91 89
34 23 22 29 25 20 17 13 11 8 8 6 5 5 6 6 6 12 21 29 34 39 36 36 37 38 38 36 36 39 47 52 55 62 74 75 70 73 73 74 73 77 83 82 78 80 84 59 44 51 48 46 42 41 45 54 68 77 80 82 82 78 70 64 63 65 64 58 52 48 50 60 74 84 88 90 81 70 76 84 84 86 87 86 86 86 86 86 87 87 88 87 87 87 91 91 87
29 22 22 23 18 16 15 13 9 6 8 6 5 5 5 5 6 11 20 30 36 36 34 35 37 43 41 41 44 44 49 53 58 63 69 74 73 77 76 77 75 77 83 82 77 79 84 61 48 53 50 49 43 41 40 42 54 68 73 71 65 59 52 49 53 55 53 53 56 62 69 78 85 88 90 90 86 84 85 85 82 79 84 89 89 88 87 86 85 86 87 86 86 88 92 90 89
23 22 24 21 15 12 12 12 8 7 7 5 4 4 4 4 6 8 10 21 31 34 34 33 36 44 45 48 48 46 53 55 59 62 67 77 79 80 79 78 75 75 80 81 77 81 82 61 52 54 51 51 47 44 40 37 43 52 54 50 46 44 44 48 55 58 62 69 75 80 83 86 88 89 91 89 86 89 90 91 91 86 86 89 90 91 90 89 85 84 86 88 88 90 91 91 91
19 19 24 21 14 10 12 11 8 7 5 4 4 5 5 5 6 7 6 9 16 25 33 33 33 40 48 53 52 57 68 64 60 65 71 80 82 81 80 78 74 71 76 81 78 84 82 62 55 55 52 52 50 49 46 42 41 42 43 42 43 43 48 57 66 73 79 83 84 85 85 87 89 91 92 91 89 92 93 94 96 94 90 84 86 91 91 90 87 86 88 88 89 91 90 91 88
16 16 17 16 12 11 11 9 7 4 5 4 5 6 6 6 6 6 7 7 8 16 27 33 30 33 48 53 55 66 77 73 64 66 74 81 86 84 80 76 73 71 75 80 80 84 76 59 57 58 55 53 52 53 53 53 50 49 49 50 52 54 59 67 72 77 81 82 84 83 84 88 89 90 93 94 93 94 95 95 95 95 93 85 86 90 90 91 90 90 92 90 90 90 86 84 83
17 15 12 12 10 10 10 8 6 3 6 5 5 6 6 6 6 7 6 7 10 16 25 32 29 33 48 49 55 70 75 76 69 70 79 84 87 85 80 75 72 73 75 78 84 84 66 56 61 61 59 55 53 54 55 57 58 57 56 60 66 67 67 69 71 73 77 79 81 82 84 88 89 90 92 94 94 94 96 95 93 93 95 92 90 88 86 91 93 93 94 93 88 82 79 78 80
16 14 11 12 10 9 9 7 6 4 6 5 5 6 7 7 6 7 7 7 9 17 25 28 29 32 46 51 59 71 75 77 73 76 83 85 86 83 79 74 71 73 74 77 88 86 65 59 65 66 65 60 55 56 59 60 60 58 57 62 65 67 68 69 70 71 74 76 79 83 85 85 86 87 90 92 91 94 96 94 92 91 90 88 88 86 83 85 90 94 93 95 89 81 79 78 79
12 12 10 9 10 9 7 5 5 5 5 5 6 6 7 7 6 7 7 7 5 16 26 28 31 31 39 52 62 69 76 79 75 79 83 83 84 80 78 74 72 72 73 77 91 90 73 68 68 71 72 66 62 61 65 67 64 59 58 60 60 62 68 72 74 75 75 76 81 83 81 77 77 80 85 88 88 91 92 90 89 88 84 83 84 83 83 83 87 91 91 94 91 84 80 78 79
11 10 9 9 9 9 6 5 4 5 6 5 6 7 9 10 10 7 6 7 4 19 33 33 36 34 39 52 65 74 81 80 74 78 82 83 82 79 76 74 74 73 74 81 93 91 80 77 73 77 80 76 73 70 73 73 69 65 63 64 65 65 72 77 77 77 75 75 76 73 69 68 70 73 77 81 83 84 82 83 84 84 83 83 82 80 81 83 87 89 90 94 89 82 79 77 77
11 9 9 9 7 6 5 5 4 5 5 5 7 7 13 15 11 8 7 6 6 24 36 34 35 34 44 55 65 78 81 78 74 78 83 84 81 78 75 74 76 76 79 86 93 92 86 83 77 78 81 80 78 75 75 74 72 70 70 70 71 74 76 76 74 73 68 63 58 54 56 62 66 68 73 76 77 78 78 81 83 83 83 80 79 77 73 74 82 86 87 88 82 78 77 75 70
12 8 7 7 6 5 5 5 4 5 4 6 7 6 16 22 19 16 11 5 10 29 34 33 34 36 50 59 67 77 79 79 78 80 84 82 80 79 78 78 78 80 85 89 93 94 91 86 83 81 79 79 78 77 73 72 75 73 75 77 78 80 78 74 72 68 60 54 52 53 56 59 62 66 74 76 76 79 81 83 82 84 83 78 77 75 70 69 74 76 77 78 76 73 71 69 63
10 7 7 6 6 6 5 5 4 5 5 6 7 6 18 29 29 23 11 8 19 31 33 36 34 38 54 60 68 73 76 83 82 82 83 81 82 82 82 82 82 83 85 89 95 95 91 87 88 86 85 86 82 80 77 72 74 74 76 78 79 79 77 75 70 64 59 60 61 63 65 62 61 67 76 77 79 81 80 82 82 84 81 73 74 74 71 70 69 68 69 69 69 66 64 64 60
10 8 8 7 7 7 5 5 5 5 5 7 8 6 16 30 34 28 18 19 33 38 37 42 38 42 50 51 59 63 73 85 84 84 84 83 84 83 83 83 84 84 81 87 94 93 91 91 90 87 91 93 86 88 86 78 77 75 73 76 80 79 78 75 67 66 70 70 67 69 71 68 64 66 74 76 75 75 74 77 78 81 78 69 70 72 70 67 67 68 68 67 65 62 60 60 58
11 9 8 9 8 7 5 6 5 5 6 7 7 6 12 27 35 35 32 32 43 47 41 44 44 44 43 39 46 57 75 88 86 86 84 84 86 84 82 84 85 83 82 88 90 89 90 94 95 90 89 92 91 95 91 85 85 81 78 81 82 79 78 73 69 74 76 74 71 72 73 74 74 71 74 74 69 69 73 75 73 77 78 75 72 71 70 66 67 69 70 69 67 63 60 58 56
10 10 10 10 8 7 6 6 5 5 7 7 7 6 8 23 37 39 38 37 42 49 48 47 46 44 41 40 46 61 81 89 87 87 84 83 84 82 80 83 86 85 87 87 86 87 88 91 93 87 86 92 95 92 88 90 93 91 90 90 85 80 80 75 71 75 76 75 71 72 79 87 89 83 83 81 74 72 74 74 74 77 80 80 79 74 71 69 69 70 70 69 68 64 61 58 55
10 10 11 10 7 7 6 5 6 6 7 7 7 7 6 16 34 40 40 41 43 48 50 47 48 47 46 49 56 71 85 88 87 85 83 81 80 78 77 79 80 81 83 81 81 83 84 86 84 83 88 95 95 88 88 95 96 96 95 90 87 86 83 75 73 77 80 78 71 76 89 94 90 86 89 88 85 80 74 72 73 76 80 82 82 80 76 74 72 69 69 69 67 62 62 66 60
10 9 10 9 7 6 6 6 6 7 8 7 6 7 6 8 23 37 38 41 43 45 48 48 51 53 52 55 64 78 85 86 86 82 80 78 75 74 74 75 75 76 77 75 76 78 80 81 79 81 88 92 94 93 95 97 95 92 88 82 86 91 83 77 79 83 86 84 80 87 92 88 84 86 91 89 88 86 75 70 69 67 71 74 76 78 76 77 76 72 69 66 64 62 64 68 63
9 9 11 8 6 7 7 6 7 8 7 8 7 6 7 5 12 25 28 32 35 35 42 47 50 55 57 59 67 78 84 84 82 79 77 75 73 73 72 72 74 75 76 73 73 78 78 77 77 80 88 92 95 98 97 98 94 87 83 81 88 93 86 83 86 86 89 89 90 92 88 86 85 87 90 85 84 84 76 71 68 63 62 61 64 72 74 74 78 76 68 64 66 66 63 61 58
10 10 9 6 7 7 6 7 8 8 8 7 7 6 7 6 8 16 21 26 27 24 28 35 41 50 59 62 67 74 80 81 78 77 75 74 72 71 71 72 72 74 75 71 71 78 76 77 82 84 90 92 89 91 95 100 96 91 90 90 94 95 89 88 88 89 92 92 91 89 86 87 85 86 88 82 80 81 79 77 73 71 70 64 64 73 75 74 80 82 73 70 71 68 64 61 58
11 10 8 8 9 7 6 7 8 7 8 7 7 7 6 6 8 11 17 18 19 21 24 29 34 44 55 61 66 70 75 78 75 74 73 73 71 69 72 73 73 75 76 70 71 79 78 79 84 87 91 86 81 88 96 96 92 97 98 96 98 94 90 92 91 93 94 93 92 89 90 90 85 87 91 84 81 80 78 79 76 76 76 70 68 71 73 72 76 80 74 71 69 67 65 63 61
11 10 8 9 9 7 7 7 7 8 8 7 7 6 6 6 6 10 17 17 19 26 29 31 35 44 53 58 67 71 70 74 74 72 71 71 70 70 73 73 74 75 76 72 73 81 80 80 82 87 90 82 82 92 96 87 82 90 92 95 97 86 85 91 94 95 94 94 94 95 95 91 84 86 92 85 81 79 77 79 76 74 72 69 70 71 75 73 69 73 72 69 67 65 64 61 60
9 9 9 9 8 8 7 7 7 8 7 7 7 6 7 6 6 11 16 18 26 31 30 32 37 46 54 57 68 71 67 72 75 72 70 74 75 74 74 73 73 74 77 77 78 80 79 78 80 85 87 83 88 94 94 89 87 84 80 92 94 81 81 87 94 96 94 96 96 97 96 90 85 84 89 84 80 81 81 82 79 76 73 70 72 74 78 77 71 71 69 65 64 63 63 60 58
9 8 9 9 9 8 7 7 7 7 7 7 7 6 7 5 7 9 10 20 32 35 31 33 41 49 53 58 68 70 68 73 75 73 75 82 82 77 77 77 73 73 78 81 80 78 76 77 78 81 82 83 89 94 95 93 96 91 81 89 92 89 88 87 95 97 95 97 97 95 92 93 90 84 89 86 82 89 91 91 87 82 78 74 75 78 80 81 76 71 66 63 63 62 63 61 58
9 8 9 9 9 8 7 7 7 7 7 6 7 7 6 6 8 6 10 28 38 37 36 38 45 51 53 59 67 67 69 75 75 77 84 88 84 80 82 82 77 76 81 82 78 76 77 77 77 80 78 80 87 91 91 84 89 95 84 84 91 92 91 90 96 98 97 97 95 92 89 96 94 90 95 90 85 92 97 98 93 91 90 84 81 82 83 84 79 72 67 63 62 64 63 60 57
9 8 8 9 8 7 7 7 7 6 7 7 7 7 6 9 11 7 16 35 39 37 41 44 47 52 54 56 62 65 68 74 76 83 91 88 83 85 88 87 82 83 87 86 80 76 77 76 74 76 76 80 81 81 89 88 86 86 79 80 84 86 89 96 98 98 100 98 96 96 93 96 94 90 89 82 83 92 97 95 90 94 95 90 88 87 85 85 84 78 69 64 64 65 64 60 56
8 8 8 9 7 7 7 7 7 6 7 6 6 6 7 14 13 9 24 39 38 38 44 48 48 51 54 54 58 62 65 71 76 82 85 81 79 84 89 89 85 86 89 86 82 77 78 77 71 72 80 83 76 75 89 94 88 82 78 78 79 86 95 99 99 99 101 99 96 96 96 96 95 91 80 76 86 95 95 90 86 90 90 90 91 86 81 84 89 84 73 70 70 68 65 61 57
9 8 8 8 7 8 7 6 7 6 7 5 7 7 8 14 11 12 31 40 39 41 44 49 49 49 51 52 55 59 62 69 76 77 77 75 75 80 84 89 87 85 85 79 79 80 79 79 73 72 81 85 78 80 87 88 86 82 79 78 82 94 99 98 100 100 100 98 93 95 99 98 93 87 74 75 89 94 94 95 93 93 92 94 94 86 84 87 89 85 76 74 75 72 67 63 62
9 8 8 8 8 8 6 6 6 6 7 5 7 7 8 9 7 17 34 37 40 43 43 46 49 49 50 51 54 57 62 70 78 77 73 72 74 78 80 86 87 83 84 79 78 83 80 79 78 77 81 84 83 85 87 83 81 79 77 81 89 96 96 98 100 96 99 99 92 92 98 97 87 78 72 76 88 94 97 100 99 96 95 98 97 94 92 87 86 85 75 70 72 72 69 66 65
8 9 9 8 9 8 5 6 6 6 7 5 7 7 7 5 6 21 34 35 37 38 40 44 47 49 50 51 53 57 65 75 82 80 75 73 74 76 78 85 87 83 85 83 79 83 82 79 80 81 83 84 84 85 85 82 78 77 80 86 93 98 98 100 99 94 97 99 96 93 94 98 87 77 80 86 92 98 100 100 98 96 95 96 98 97 93 88 86 84 73 67 69 70 71 69 68
8 10 11 8 8 8 6 7 6 6 6 6 7 7 6 5 9 26 36 35 35 33 36 42 46 51 52 52 53 59 72 82 84 81 79 76 74 75 76 80 85 84 85 85 84 85 84 80 79 83 85 81 82 85 84 83 81 83 87 90 93 97 95 95 95 94 95 95 97 96 94 94 83 79 89 96 98 100 100 99 97 97 95 96 99 96 93 91 88 83 78 74 71 70 70 70 72
9 10 11 9 8 7 7 7 6 6 7 6 6 6 6 6 12 28 37 35 35 32 34 43 48 52 54 53 54 60 74 84 82 80 80 78 75 72 72 76 81 82 85 87 87 87 86 81 80 84 84 82 85 86 85 88 88 88 90 90 90 92 92 93 93 92 95 94 93 95 97 94 87 90 99 100 100 99 99 99 98 98 97 97 100 97 95 94 91 87 85 82 76 72 70 69 73
12 10 10 11 9 7 7 8 8 7 7 6 6 6 6 8 13 28 36 35 35 32 34 44 49 53 54 52 54 59 72 82 80 79 81 79 75 69 68 74 78 78 84 88 87 87 88 82 82 86 84 87 91 89 89 93 92 90 91 91 94 97 97 96 91 86 90 91 88 90 95 97 96 97 100 99 100 100 98 97 95 97 99 99 100 98 97 98 97 92 89 87 80 73 69 67 71
14 12 11 12 11 8 8 9 9 8 8 6 8 7 6 8 12 24 34 35 36 34 36 43 48 54 54 51 55 61 71 79 76 78 82 82 79 73 71 76 82 82 83 88 88 90 91 87 88 90 91 93 93 90 93 96 96 95 95 96 96 95 92 89 83 82 87 88 88 89 90 93 96 97 99 99 100 99 97 95 93 94 98 101 99 96 97 99 98 97 93 89 85 78 72 72 76
12 11 10 11 10 9 8 9 10 10 9 8 9 9 8 8 10 20 33 39 41 39 41 45 47 52 54 51 54 61 70 73 72 75 80 82 82 80 78 80 86 87 84 87 92 93 92 92 94 95 97 96 93 93 97 100 99 94 92 90 85 82 82 81 77 78 81 83 85 87 87 88 90 94 97 99 100 99 99 98 95 95 98 98 96 93 95 97 96 98 95 89 87 82 76 79 82
11 10 11 9 10 10 7 10 12 11 12 10 9 10 9 8 9 20 35 43 44 44 47 48 47 50 53 51 53 59 66 66 69 75 78 80 81 83 83 81 85 85 84 88 92 94 93 93 95 97 98 96 95 97 99 100 93 85 81 78 73 72 75 76 75 75 77 81 83 82 84 86 86 88 92 98 101 99 100 100 97 98 100 98 97 94 97 99 98 96 93 88 86 82 79 82 84
14 12 11 10 10 10 8 12 13 13 15 12 10 11 10 9 10 21 37 43 43 43 47 49 47 50 51 50 52 57 62 64 69 75 78 79 79 83 84 82 82 79 81 87 88 91 94 92 94 97 96 95 96 95 94 93 84 76 71 68 66 65 67 66 66 72 77 82 84 81 82 84 85 85 86 95 101 100 100 99 97 99 100 99 99 97 98 100 99 97 92 87 83 83 83 85 88
15 12 12 12 9 9 12 16 14 14 16 13 13 12 10 14 16 26 36 39 41 42 44 47 47 48 49 49 51 54 60 66 72 75 76 77 77 81 83 83 81 76 79 85 84 88 96 95 94 96 94 91 92 90 87 82 76 75 72 67 65 62 65 68 66 72 75 77 81 81 81 82 82 80 80 86 93 97 100 98 98 99 100 100 98 97 98 98 99 99 94 88 86 86 87 87 90
15 13 12 12 10 9 13 17 17 17 18 16 14 12 15 24 27 33 37 35 40 43 44 45 45 46 49 49 49 51 58 66 71 72 73 74 75 77 81 82 80 76 78 82 79 81 89 92 93 93 90 86 88 87 81 75 74 81 82 78 76 70 72 77 74 74 71 69 72 75 79 81 78 76 77 78 80 87 91 92 94 96 98 100 97 95 96 97 97 97 94 91 88 86 85 84 87
14 14 13 11 11 10 12 16 19 20 22 21 16 12 18 26 29 35 40 40 44 45 45 48 46 46 48 49 50 51 56 60 63 67 69 71 73 74 77 78 76 75 77 77 76 75 78 84 88 90 87 82 84 83 77 76 78 83 84 82 79 75 75 75 70 70 68 63 61 63 71 78 76 74 75 73 74 78 80 82 84 86 91 93 92 90 90 93 94 95 93 89 86 83 83 84 86
13 15 14 12 11 12 13 16 19 19 19 21 20 15 16 21 24 31 42 47 47 47 48 49 48 48 49 50 51 52 53 53 54 60 63 67 71 73 74 74 73 75 77 75 74 74 75 77 82 89 85 77 80 81 77 81 82 79 78 73 70 69 68 67 65 65 64 60 56 55 62 73 75 73 72 69 71 75 77 78 76 76 79 82 85 84 83 86 87 89 87 82 84 86 86 84 83
12 14 12 12 13 15 17 17 17 17 17 22 23 18 17 18 19 27 41 46 47 50 51 49 47 49 50 50 51 53 53 52 52 54 57 63 69 71 73 73 73 75 76 75 75 75 76 78 83 86 83 78 80 80 80 83 81 77 74 67 63 61 60 64 67 66 63 59 58 56 60 71 75 71 71 69 70 74 77 78 78 77 75 76 79 78 78 81 79 80 82 79 81 87 89 85 82
14 14 11 11 14 16 18 16 16 15 17 22 20 17 16 16 17 25 37 40 43 49 51 49 47 48 51 51 51 52 55 57 56 55 55 58 63 67 70 73 75 75 75 77 78 77 77 82 86 84 82 82 82 82 84 84 78 76 73 65 61 59 61 68 70 68 65 60 59 60 60 66 72 71 70 71 70 71 73 74 77 78 75 73 74 72 75 78 78 82 86 84 83 87 87 84 84
16 18 13 11 13 15 16 15 15 15 17 19 17 15 15 16 18 23 29 31 35 44 47 46 44 45 48 50 50 52 54 56 55 56 57 56 59 61 65 72 74 74 75 77 78 80 81 84 86 85 84 85 85 85 86 82 77 76 70 65 63 62 64 67 66 65 65 62 61 63 62 63 69 72 72 73 70 68 69 70 72 77 76 72 71 72 76 82 86 90 91 90 89 89 86 82 82
18 18 14 13 13 14 16 15 13 17 20 18 18 19 16 16 16 18 22 24 27 34 38 39 39 40 43 47 49 50 52 54 53 54 57 59 60 60 64 72 73 75 78 78 79 82 83 84 86 85 84 86 87 87 86 83 80 76 69 66 66 66 67 65 63 64 64 61 60 63 63 61 64 68 70 73 71 68 68 67 69 75 77 73 71 73 77 81 86 89 90 91 92 91 87 83 79
18 15 13 13 13 14 16 14 13 19 22 18 19 23 20 18 15 14 21 24 23 25 24 26 29 30 35 43 46 46 48 51 50 50 54 61 63 62 67 72 71 75 79 78 78 80 81 84 84 83 84 87 87 84 85 85 80 74 70 69 67 68 70 67 65 65 61 58 57 59 59 59 61 63 65 69 70 69 67 66 70 76 78 75 72 70 70 72 77 81 85 89 90 91 89 86 83
16 14 13 15 16 16 16 15 18 21 22 20 20 23 21 19 16 15 21 26 26 27 25 26 29 27 29 35 39 42 44 47 48 48 52 60 63 64 68 70 70 77 81 79 80 80 81 82 81 81 84 86 86 85 84 83 80 77 74 71 68 68 70 67 65 63 59 56 56 56 56 57 59 60 62 65 67 68 64 64 69 72 75 75 71 67 65 67 69 73 78 81 83 87 88 88 86
16 13 14 18 18 20 20 19 20 19 22 24 22 23 21 18 20 21 26 31 35 38 38 38 38 36 35 31 32 39 42 43 46 47 50 60 64 62 65 71 76 84 86 84 86 86 85 84 81 82 84 85 86 85 84 82 80 78 75 71 69 69 68 65 63 60 57 55 54 55 54 54 55 57 61 62 64 66 62 64 70 70 72 75 72 69 67 67 64 64 70 75 76 80 83 84 85
16 14 16 18 18 23 25 21 19 19 23 25 23 25 21 16 23 28 32 37 40 42 44 47 47 46 44 33 26 36 42 41 44 46 50 57 59 58 64 74 82 85 80 74 79 85 86 86 85 83 83 84 83 82 82 82 79 75 71 70 70 69 69 66 61 59 57 55 53 54 53 52 53 55 61 63 64 64 64 69 74 75 75 76 75 74 70 68 63 59 63 68 70 73 75 78 80
15 12 13 16 15 20 22 19 17 16 21 25 25 25 19 17 25 31 34 38 40 42 43 48 48 44 43 34 29 38 44 42 44 47 50 54 56 61 69 76 80 80 76 74 78 82 80 78 79 77 75 76 81 83 77 71 68 61 58 66 72 69 67 65 60 58 58 57 56 55 53 52 53 56 60 63 64 65 68 73 75 74 75 74 75 75 68 66 64 58 60 63 64 66 67 68 69
15 11 12 16 13 14 20 26 28 23 22 24 25 22 17 20 26 29 33 36 37 41 42 46 49 45 44 42 41 45 46 46 48 51 54 58 62 67 71 73 77 79 82 87 86 78 73 72 70 68 66 69 76 76 65 57 54 47 46 62 74 72 69 65 60 60 60 60 58 54 53 53 54 56 60 62 64 66 67 69 67 67 67 65 68 70 65 64 65 58 55 58 60 59 59 59 58
17 14 15 15 12 13 20 29 34 29 22 22 23 22 18 21 24 26 31 33 36 41 44 47 51 51 50 50 49 49 48 48 50 52 56 60 63 66 69 72 76 79 83 93 92 80 75 76 72 67 65 70 75 69 60 56 52 46 46 56 67 71 69 64 66 68 66 63 59 53 53 55 56 58 60 62 64 64 63 61 60 60 57 54 56 60 60 62 62 58 54 55 57 56 53 52 50
16 16 14 13 14 15 17 22 26 24 22 22 24 24 20 20 23 26 28 31 37 43 46 50 53 52 52 52 50 48 47 48 49 52 57 60 64 69 73 75 75 77 81 90 92 85 82 80 76 73 75 80 83 76 65 59 57 55 53 54 58 62 61 65 75 72 61 60 61 56 53 55 58 58 58 61 61 60 59 57 56 56 53 48 47 49 53 56 54 52 52 53 53 51 48 49 49
13 14 12 13 18 18 17 22 24 24 25 23 24 23 18 17 23 27 29 33 40 46 49 50 50 50 50 50 51 52 52 53 54 55 57 60 64 69 77 81 80 80 82 87 91 90 89 82 74 76 85 88 86 79 71 67 68 67 63 59 57 58 63 70 73 64 56 60 63 57 53 55 59 58 55 58 58 55 55 54 54 55 52 49 47 46 49 50 48 47 46 47 47 45 43 45 48
12 12 11 13 18 18 18 20 20 22 24 22 25 25 18 21 31 33 36 40 44 48 52 51 49 51 54 57 59 60 59 58 55 52 53 59 63 67 74 79 80 84 87 88 87 89 91 88 80 80 86 87 83 80 76 74 76 76 75 72 66 67 70 65 58 55 59 66 61 55 56 57 59 57 54 56 54 51 51 51 51 53 52 51 48 47 48 47 47 47 43 42 44 43 41 43 45
14 15 15 15 17 18 19 19 17 18 20 22 26 24 24 38 45 41 43 47 47 49 52 53 54 58 64 64 61 58 57 58 56 54 56 63 69 73 75 75 76 82 88 89 87 87 89 89 87 82 80 79 78 79 76 73 74 78 81 80 73 72 68 59 59 63 68 69 61 59 62 59 58 58 54 53 51 49 50 49 49 49 51 55 53 50 51 48 47 49 47 46 47 43 41 42 43
14 15 14 15 17 18 20 21 19 18 18 20 22 20 32 50 51 45 50 52 47 46 49 55 61 65 67 66 64 62 59 59 60 58 59 64 69 73 75 76 76 77 80 83 84 84 84 83 82 80 77 74 73 74 73 72 75 79 81 80 77 75 70 67 71 75 77 73 63 62 66 62 60 62 56 50 49 51 51 50 50 50 51 56 55 53 54 51 48 49 49 51 50 44 42 44 44
Wind_Speed
5 5 6 6 6 7 7 6 5 4 5 7 7 6 3 2 1 2 1 2 3 1 0 2 1 2 1 2 0 2 8 6 4 2 0 3 5 12 16 21 26 26 26 25 26 27 27 27 26 26 26 25 25 25 25 26 26 26 25 24 24 23 22 21 20 20 19 19 19 18 17 17 16 15 15 15 15 17 19 18 17 16 14 13 13 13 13 13 13 13 12 12 12 11 10 11 11
5 6 6 6 7 7 4 4 5 4 7 7 7 6 4 6 4 2 3 2 2 4 2 2 4 3 0 3 0 1 5 10 10 6 4 7 10 13 18 23 27 26 25 25 26 25 25 27 27 27 26 26 25 25 25 26 26 25 24 23 22 21 21 21 20 20 20 20 19 18 17 16 15 14 14 13 14 16 18 18 17 16 15 15 14 13 13 13 13 13 13 12 11 11 11 11 11
6 6 7 7 7 6 2 4 6 5 7 7 7 5 5 5 5 4 5 4 6 5 4 5 5 3 2 4 2 1 4 8 9 7 6 10 11 14 22 25 25 26 25 25 25 23 24 28 28 27 27 26 26 25 24 24 25 25 24 23 22 21 21 21 20 21 20 20 19 17 16 15 14 13 13 14 14 16 17 16 16 16 16 15 15 14 13 13 13 13 13 12 11 11 11 11 12
7 6 8 9 6 5 4 5 6 6 6 7 5 5 5 6 4 5 5 5 5 4 3 5 5 2 3 2 2 2 5 6 6 6 7 9 11 17 24 25 25 25 24 24 24 23 23 28 29 28 27 26 26 25 24 24 24 25 25 24 23 22 22 21 21 21 20 19 18 17 16 15 14 14 14 15 15 16 16 16 15 15 15 15 15 14 13 13 13 13 12 12 12 11 11 11 12
6 7 8 8 4 3 4 5 5 7 6 5 3 5 5 3 4 3 4 2 4 4 3 3 4 3 2 5 2 1 5 4 6 6 7 10 13 20 24 24 24 23 24 24 23 22 24 29 29 28 27 26 26 25 24 24 24 25 25 25 24 23 23 22 21 20 19 18 17 16 15 14 13 13 13 14 15 15 16 16 16 15 15 14 14 14 14 13 13 12 12 12 11 11 12 12 12
7 8 7 8 3 1 4 5 6 8 7 5 2 6 6 3 3 2 1 2 5 5 4 3 1 4 4 6 4 3 4 1 6 6 9 13 17 21 23 23 22 22 23 23 22 22 25 29 28 27 27 26 26 25 25 25 24 24 25 24 23 23 23 22 20 18 18 16 16 16 14 13 12 12 12 14 15 15 15 16 16 15 14 13 14 14 13 13 13 12 12 12 11 12 13 13 12
9 8 6 7 2 2 7 7 7 8 5 3 3 3 2 3 3 3 3 4 5 7 7 4 3 5 5 5 5 6 3 2 3 7 11 16 19 21 22 22 21 22 22 23 22 23 27 28 27 27 26 26 25 25 25 24 24 24 24 23 22 22 21 20 19 18 17 16 15 14 13 12 12 12 12 13 14 14 14 15 15 13 12 12 13 13 13 12 12 12 13 12 12 12 13 13 11
10 7 4 6 4 4 7 7 8 6 2 1 2 2 5 6 4 5 5 4 4 6 7 7 7 4 5 5 3 5 3 1 5 11 15 17 20 21 22 21 21 21 21 22 22 24 28 28 27 26 26 26 25 24 24 23 23 23 23 22 21 20 19 19 18 17 16 15 14 14 13 12 12 12 12 12 13 13 14 15 15 13 12 12 12 12 12 12 12 12 12 12 12 11 12 12 8
10 6 3 6 5 5 7 7 7 6 2 1 2 2 4 5 6 6 6 6 3 4 7 8 9 5 6 6 4 6 4 6 10 15 17 18 20 21 21 21 21 20 21 21 22 26 28 28 28 27 26 26 25 25 24 23 22 22 22 21 20 19 18 17 17 16 16 15 14 14 13 12 12 11 11 11 11 13 14 14 14 13 12 11 11 10 11 12 11 11 11 10 11 11 10 9 7
8 5 4 5 5 6 7 7 6 4 2 2 2 2 3 6 7 7 8 7 5 6 6 7 7 6 9 8 6 5 5 9 13 16 16 17 19 19 20 20 20 19 20 21 23 25 26 27 27 26 26 25 25 25 24 23 22 22 21 21 20 19 17 16 15 15 14 14 14 14 13 12 11 11 10 10 10 11 12 13 12 12 11 11 10 9 10 11 10 10 10 9 9 10 8 7 6
6 4 4 6 6 7 7 6 6 3 2 2 1 1 3 6 7 7 8 7 7 7 8 7 7 8 10 8 5 5 8 11 14 16 17 17 18 18 19 19 19 19 19 22 23 24 25 24 25 26 25 25 25 24 24 22 21 21 20 20 19 18 17 15 14 13 13 13 13 13 13 12 11 11 10 10 10 10 10 11 10 10 10 9 9 10 9 10 10 10 10 9 9 9 8 7 6
6 6 5 6 7 6 5 5 4 2 3 4 1 4 4 5 6 7 7 7 8 8 10 8 7 9 9 7 5 7 9 11 14 17 17 17 17 17 18 17 18 18 19 21 22 23 25 23 23 24 24 25 24 24 23 22 21 20 19 19 18 18 16 15 13 12 12 12 12 12 12 12 12 11 10 10 9 9 9 10 10 10 9 8 9 9 8 9 9 10 10 9 9 10 9 8 6
6 6 7 7 6 5 5 5 2 2 4 4 2 6 4 3 4 5 6 7 8 10 10 7 7 8 6 7 6 8 9 10 14 17 16 16 17 17 16 17 17 18 19 20 21 22 24 23 22 23 24 23 23 23 23 23 21 20 19 18 17 17 16 14 13 12 11 12 12 12 12 12 12 11 10 10 10 9 9 9 9 9 8 8 8 8 8 8 9 9 8 8 8 9 10 9 7
6 4 6 6 5 6 5 6 3 5 4 5 4 6 3 2 3 4 5 9 9 7 8 7 7 7 6 7 6 7 9 12 15 17 17 15 17 17 16 17 17 17 18 19 21 23 23 22 22 22 22 21 22 22 22 23 21 20 18 17 16 15 15 14 12 12 12 13 13 12 12 11 12 12 11 10 9 9 8 9 9 9 9 8 9 9 10 9 9 8 7 6 6 6 8 8 8
6 3 5 6 5 6 6 6 4 6 3 7 5 6 2 3 2 2 3 7 7 5 7 7 3 3 6 6 5 10 13 15 17 17 17 16 17 17 17 17 16 17 17 16 19 23 21 20 20 20 19 19 19 19 20 21 19 19 18 16 15 15 15 13 13 13 13 13 13 12 12 11 11 11 11 10 9 9 8 8 9 9 9 9 9 10 10 10 9 8 7 6 5 5 6 7 8
5 4 5 6 7 7 6 6 4 6 3 7 4 5 1 4 2 0 1 2 7 6 5 6 1 2 3 3 6 16 19 18 19 19 19 18 18 17 17 17 15 15 15 15 16 19 19 18 19 18 17 17 17 16 18 19 18 18 17 16 15 15 15 14 14 14 13 13 12 12 11 11 11 11 10 10 10 10 9 9 9 9 9 9 9 10 10 9 8 8 7 6 6 5 6 7 9
4 5 7 6 8 7 5 7 4 2 6 7 4 6 3 5 2 2 2 3 8 7 3 4 2 2 0 5 12 22 22 20 20 21 20 19 18 18 17 16 15 15 14 14 14 14 15 15 17 16 16 16 16 16 17 16 17 17 17 16 15 15 15 14 14 13 13 12 11 12 11 10 10 10 10 10 10 10 10 10 9 9 9 9 9 9 8 8 7 7 6 6 6 6 6 7 9
5 6 7 7 8 6 4 5 2 1 5 5 4 6 6 4 4 4 5 6 9 7 5 5 4 4 6 12 17 22 21 21 21 21 21 19 19 18 17 16 15 15 14 14 13 13 13 13 15 15 14 15 16 17 16 15 15 16 16 16 14 15 15 15 14 12 12 11 11 11 10 9 9 9 9 9 9 9 10 10 9 9 9 8 8 8 7 7 7 6 6 6 6 6 7 5 7
7 6 7 8 7 3 1 2 1 1 2 4 3 4 6 4 3 4 6 8 10 8 7 7 6 8 9 13 18 21 21 21 21 21 20 19 19 18 18 17 16 15 14 13 13 12 12 12 13 13 13 15 14 13 14 15 15 16 15 15 15 15 15 14 13 12 11 10 10 9 8 8 8 8 8 9 9 9 9 9 9 9 9 8 7 7 7 7 7 6 6 6 6 6 5 4 6
8 7 7 8 5 2 2 2 2 1 4 3 2 3 3 4 2 4 6 9 11 9 9 8 8 10 11 13 16 19 20 20 20 20 19 18 18 18 17 17 16 15 13 13 13 12 11 12 11 11 12 13 13 12 13 14 16 16 15 15 15 15 14 14 12 11 10 9 9 8 8 8 8 8 8 9 9 8 8 8 8 8 9 8 7 7 7 7 7 7 7 6 5 4 3 4 5
6 7 9 5 3 5 4 4 3 1 4 4 4 4 2 4 3 3 6 9 9 8 9 8 9 12 14 14 15 18 19 19 20 19 18 18 17 17 16 15 15 14 13 12 13 12 11 11 11 11 12 13 15 14 12 12 14 13 13 14 13 13 13 12 11 10 9 9 8 7 8 8 8 8 8 8 7 7 7 7 6 7 7 8 7 6 6 7 7 8 7 6 5 4 4 4 4
5 9 10 4 2 6 3 4 2 2 3 4 5 4 2 3 3 3 6 8 5 3 4 3 6 12 15 15 16 17 17 17 18 18 17 17 17 16 14 14 14 14 12 12 13 12 12 11 11 12 12 13 14 13 12 12 13 11 11 11 11 11 11 10 10 9 9 9 8 7 8 8 7 7 8 7 6 6 7 6 6 6 7 7 7 6 7 7 7 7 6 6 5 5 5 4 4
7 8 9 6 6 6 3 2 2 2 5 5 4 4 4 5 3 2 7 3 5 3 2 0 4 11 14 14 16 16 16 16 16 16 17 16 15 14 14 14 15 15 13 12 13 13 12 11 12 13 14 13 12 12 13 14 15 14 12 9 8 10 10 9 9 8 8 8 7 7 8 8 7 8 8 8 7 7 7 7 7 7 7 7 7 7 7 7 7 7 6 6 6 6 6 6 6
10 8 7 9 8 8 7 5 4 4 6 5 4 5 5 6 2 0 6 2 3 4 3 2 6 11 13 14 15 15 15 15 13 14 13 12 12 13 14 15 16 15 13 12 12 12 12 12 12 13 15 14 13 12 14 14 14 14 13 9 7 9 10 9 8 8 8 7 7 7 7 8 8 9 10 9 7 7 7 7 7 7 7 7 7 7 7 8 7 8 8 8 8 7 7 6 6
13 10 6 7 7 8 9 8 7 7 6 5 6 8 6 5 3 3 6 3 1 2 1 5 8 12 12 13 14 13 13 12 12 11 8 9 11 14 14 12 13 12 12 12 11 12 13 13 12 12 14 14 14 12 12 12 11 14 15 13 9 9 10 9 7 7 7 7 7 7 6 7 8 9 9 8 7 7 6 6 5 6 7 7 7 7 7 7 7 8 9 9 8 7 7 6 7
11 14 8 7 9 9 9 9 9 8 6 5 7 10 5 2 4 6 6 3 2 2 4 8 10 12 12 12 13 12 11 11 11 9 10 13 16 15 11 9 8 7 10 11 11 12 12 13 13 12 13 12 12 12 12 11 11 13 14 13 11 10 10 9 7 6 6 6 5 6 6 6 7 7 5 5 6 6 5 5 4 5 6 7 7 7 6 7 7 8 8 8 8 7 6 6 7
5 12 9 9 10 8 9 10 9 8 6 7 10 9 4 4 5 7 6 5 4 5 7 9 10 11 11 11 11 10 10 11 13 13 12 15 17 15 14 16 14 8 7 7 8 11 12 13 13 13 12 11 11 11 12 12 11 11 11 11 11 9 8 7 6 6 5 4 3 4 6 7 6 4 4 5 7 7 5 5 6 7 7 6 6 5 5 7 6 6 8 8 8 7 7 6 6
2 7 8 10 11 9 10 11 10 8 7 9 10 8 4 6 8 6 7 7 6 7 9 10 10 10 10 10 10 9 9 12 14 14 13 14 16 16 15 19 21 15 13 11 9 10 12 12 13 13 12 12 11 10 11 12 11 11 10 10 8 7 6 5 5 5 3 3 4 4 6 7 4 2 6 8 8 7 6 7 8 9 9 8 7 5 6 7 7 6 8 8 7 7 7 6 6
4 6 8 10 10 11 13 12 9 8 7 7 7 7 7 10 10 5 8 8 7 8 9 10 9 9 9 9 9 8 9 13 14 13 13 13 15 17 14 16 21 21 20 19 14 12 12 13 13 13 13 13 12 10 10 10 10 10 9 8 6 6 5 3 3 4 3 3 6 6 6 4 1 3 9 11 9 7 7 7 7 9 9 8 7 7 7 8 7 7 8 8 7 7 6 6 6
7 7 8 8 8 10 13 12 8 9 5 6 7 8 8 13 13 8 9 9 9 9 9 10 9 8 8 9 9 9 9 11 12 12 13 13 12 15 15 14 19 21 20 21 18 16 15 15 14 14 14 14 14 12 9 8 8 7 7 6 5 5 4 3 3 4 2 2 6 7 6 3 3 9 12 12 11 9 8 7 7 8 8 6 5 7 8 9 8 7 7 8 7 6 6 7 6
8 8 7 7 7 7 11 11 10 11 5 7 10 7 7 12 14 11 9 10 11 10 10 10 9 8 8 9 9 9 8 9 12 13 13 13 12 13 15 15 17 19 19 20 20 17 17 16 15 15 15 15 15 12 9 7 6 5 5 5 5 4 3 4 3 3 2 1 2 4 3 2 5 10 9 7 7 7 7 6 6 7 6 5 4 5 8 8 8 7 6 7 7 6 6 6 6
8 7 7 8 8 5 10 10 11 11 6 9 12 7 7 8 13 12 9 10 11 10 10 9 9 9 8 9 9 9 9 9 12 14 13 13 12 12 13 14 16 17 17 17 17 17 18 17 16 15 15 15 14 11 9 7 5 4 4 5 5 4 3 3 2 1 2 1 2 1 1 1 2 5 4 4 5 5 5 5 4 5 5 4 2 2 5 5 6 6 5 5 6 6 5 6 5
7 8 7 8 9 7 7 10 11 10 6 11 12 9 6 5 11 10 9 10 11 9 10 10 9 9 8 9 9 9 9 9 10 12 13 12 11 10 12 13 14 15 15 14 14 17 19 18 17 15 15 15 12 11 8 6 5 4 4 4 4 4 3 2 2 1 2 2 2 3 3 1 3 2 2 3 3 4 4 3 3 4 4 3 2 2 2 3 4 5 5 4 5 5 6 6 5
7 8 8 7 9 9 6 9 10 9 8 11 12 10 7 4 8 10 10 10 11 10 10 10 8 8 8 9 9 9 9 8 9 10 12 12 11 10 11 12 13 13 14 13 13 17 19 17 16 14 14 14 11 10 8 6 5 4 4 4 4 4 3 2 2 2 2 2 2 2 3 2 2 2 2 2 3 3 3 4 4 3 3 3 2 2 2 2 3 4 5 5 5 5 6 6 6
8 9 8 6 8 9 7 6 9 11 11 11 11 11 11 6 7 9 10 10 10 9 8 9 9 8 8 9 9 9 9 8 9 11 12 12 12 11 11 11 12 12 13 14 15 17 17 13 12 12 12 13 11 10 9 7 6 5 5 4 3 3 3 2 2 2 2 2 2 2 2 2 2 2 2 3 3 3 3 5 5 4 3 3 2 2 2 2 3 3 4 5 5 6 5 5 6
8 9 8 8 7 9 9 5 6 6 8 10 11 10 11 10 8 10 10 10 9 8 8 8 8 8 8 9 9 8 9 9 9 11 13 12 13 12 11 11 12 13 14 15 15 15 13 11 11 12 11 12 11 10 9 7 7 6 5 5 5 4 3 3 3 3 2 2 3 3 3 2 1 1 1 2 3 4 4 4 4 4 3 2 3 3 3 3 3 4 4 5 5 6 5 5 7
4 6 7 8 6 8 9 6 6 2 5 9 11 9 11 11 10 11 11 10 10 9 9 8 8 8 8 9 10 9 9 8 10 12 12 13 13 12 12 12 12 13 14 14 14 14 13 12 13 13 12 12 11 11 10 8 8 8 7 7 6 6 5 5 5 4 4 4 4 3 3 3 2 1 1 2 3 3 3 2 2 3 3 3 3 4 3 3 4 4 4 5 6 6 6 6 7
5 6 7 7 7 6 6 5 5 2 5 8 9 9 11 10 8 10 11 11 11 10 10 9 9 9 8 10 10 9 8 8 10 11 11 13 13 13 13 12 13 14 13 12 13 14 14 13 13 14 13 12 12 11 11 10 9 8 7 7 7 7 6 6 6 6 6 5 5 4 3 4 3 3 3 3 4 3 2 2 2 2 2 3 3 3 4 4 4 5 5 6 7 7 6 6 8
6 7 6 7 8 7 5 5 4 4 5 6 7 8 9 6 5 9 11 11 9 9 9 9 9 10 9 10 11 10 10 9 9 10 11 13 13 14 13 13 14 15 14 13 13 15 15 14 15 14 12 13 12 12 12 11 9 8 7 8 8 7 7 6 7 7 6 6 6 4 4 4 4 4 4 4 4 3 2 2 2 2 2 3 3 4 4 4 5 6 6 6 7 7 6 6 9
8 7 7 6 7 8 5 6 6 4 4 5 4 7 6 6 6 7 10 9 7 7 8 8 8 9 9 9 10 10 11 10 10 10 11 12 14 15 14 14 14 14 15 15 15 17 17 16 17 15 13 14 13 13 12 11 10 9 8 10 9 8 8 8 8 8 7 6 6 4 3 4 4 4 4 4 3 3 2 2 2 2 3 4 4 4 5 5 5 6 6 7 7 7 6 7 8
9 9 9 6 7 9 4 5 6 4 4 4 5 7 6 8 9 9 8 7 7 7 8 9 8 8 8 9 10 10 10 11 11 11 11 12 14 15 16 15 15 15 15 16 17 17 16 16 17 15 15 15 14 14 13 12 12 11 10 11 10 9 9 8 8 7 7 6 5 4 3 3 3 3 3 3 3 3 2 1 1 1 2 3 3 4 4 5 5 6 6 7 8 7 6 7 8
8 11 12 8 7 8 3 4 5 6 7 6 6 8 6 9 11 10 9 8 8 8 8 10 10 9 9 9 10 10 10 11 11 11 11 12 13 15 16 16 16 16 15 16 17 17 16 16 17 17 16 16 15 16 15 14 14 13 13 12 11 10 9 7 7 7 7 6 5 5 4 3 3 3 3 3 3 3 3 2 1 1 1 2 3 3 4 5 6 6 7 7 8 8 7 7 7
6 10 14 13 7 5 4 5 7 6 4 5 5 7 4 8 10 10 10 10 10 9 9 10 10 10 10 8 9 11 11 10 10 11 12 12 14 15 15 16 16 16 16 16 17 18 17 16 17 18 17 16 15 16 16 14 13 13 13 11 10 9 9 8 7 7 7 6 6 5 5 4 3 4 3 3 3 4 4 4 3 2 1 1 2 3 4 5 6 6 6 7 7 7 8 8 7
4 7 13 15 10 7 7 7 7 4 1 4 6 7 5 7 8 9 10 10 11 11 11 11 10 10 11 10 10 10 11 10 10 11 12 12 14 15 15 15 16 16 16 16 16 17 17 16 17 18 17 16 16 16 16 14 13 13 12 10 9 9 9 9 8 8 7 7 7 7 6 5 4 4 3 3 3 4 4 3 3 3 2 2 2 2 3 3 4 5 6 6 6 7 9 9 8
1 5 8 11 9 8 7 7 7 3 2 6 8 6 6 6 8 7 8 10 11 11 11 10 10 10 10 10 10 10 11 11 10 10 11 12 15 16 16 15 16 15 14 15 15 14 15 15 15 15 15 15 16 16 16 14 12 13 11 10 10 9 9 9 9 8 8 8 8 7 6 6 4 3 3 3 3 3 3 3 2 3 3 2 3 2 3 3 4 4 5 6 6 6 7 8 8
3 5 6 6 6 6 5 7 6 4 6 8 7 5 6 5 8 7 7 9 9 9 9 8 8 9 9 9 9 9 10 10 10 10 10 12 14 15 15 15 15 13 11 11 11 11 13 14 14 14 14 14 15 15 14 14 13 12 10 10 11 11 11 10 9 9 8 9 9 8 7 6 5 3 3 3 3 3 3 3 2 3 4 4 4 4 4 4 3 4 4 5 6 7 6 6 7
1 6 8 7 7 5 5 6 4 5 8 6 6 4 6 4 7 7 5 3 3 4 7 7 5 5 6 7 8 9 9 8 9 9 10 12 13 14 14 14 13 11 9 9 8 10 11 12 13 13 13 13 15 15 14 14 14 11 10 10 11 12 12 11 10 9 9 9 10 9 7 5 5 4 3 4 4 3 4 3 3 4 5 5 4 4 4 3 3 3 4 5 5 6 6 6 7
4 8 8 7 6 5 5 5 4 7 7 4 5 3 7 5 5 6 6 6 4 3 3 5 3 2 1 3 6 7 8 8 9 9 10 11 12 13 12 11 10 7 6 4 2 4 6 8 11 13 13 15 16 16 16 16 14 11 10 11 11 12 12 11 11 10 10 10 10 9 7 6 5 4 4 5 4 4 4 3 3 5 6 5 4 4 4 4 3 3 3 4 4 5 6 6 7
7 8 8 7 7 6 7 7 7 8 4 4 4 3 7 5 3 6 7 7 5 4 3 4 3 3 1 1 3 6 7 8 8 8 8 9 9 11 11 10 11 12 13 12 13 13 11 7 6 8 9 13 16 17 15 14 12 10 10 10 10 11 11 10 11 11 10 10 9 9 8 7 5 5 5 5 5 4 4 4 4 5 6 5 5 5 5 5 4 4 4 5 5 5 5 6 7
9 9 8 7 6 6 7 7 7 7 3 4 3 2 6 6 4 6 7 7 5 4 4 4 3 3 2 0 2 5 6 7 7 7 7 8 8 10 11 12 13 15 17 15 14 17 19 18 17 15 9 2 6 11 11 11 10 9 9 9 9 9 9 10 10 10 10 10 9 9 8 7 6 6 6 6 5 4 5 6 5 6 6 6 6 6 6 5 4 5 5 6 6 6 6 7 8
10 9 8 8 6 5 6 6 6 7 5 5 4 3 6 6 4 6 6 5 5 5 5 5 3 2 2 2 3 5 6 5 6 6 6 7 9 11 12 12 12 13 15 16 20 22 20 15 10 7 4 6 3 7 12 12 11 11 11 11 10 9 9 9 9 10 10 9 9 8 8 8 7 7 7 6 5 6 7 8 7 7 7 6 6 6 6 6 5 5 6 6 7 7 7 8 8
8 6 7 7 5 4 2 1 1 3 4 4 5 4 2 2 4 5 4 4 6 6 7 7 6 6 6 5 6 6 6 6 6 6 6 7 10 11 10 10 11 12 11 15 23 24 20 15 8 5 10 10 7 9 13 14 15 15 14 13 11 9 9 9 9 10 10 9 9 8 8 8 8 9 8 7 6 7 8 9 8 8 7 7 7 6 6 6 5 6 6 6 6 6 6 6 6
6 7 8 2 2 4 3 2 3 1 6 4 5 5 3 4 4 5 4 4 7 8 8 9 8 8 8 7 7 6 7 7 6 6 7 8 10 10 9 9 10 10 11 16 21 21 18 15 11 7 12 16 18 19 18 17 16 14 15 15 13 12 11 11 10 10 10 10 9 8 9 9 9 10 9 8 8 8 9 9 9 9 8 8 7 6 6 6 5 6 6 6 6 5 6 6 5
4 7 7 3 1 4 4 4 3 4 7 4 5 8 7 7 5 5 5 5 8 8 9 9 9 9 9 8 8 8 9 8 8 8 8 9 9 10 11 12 11 9 9 14 16 17 17 15 10 4 13 21 22 20 17 16 15 15 16 16 15 14 12 11 11 12 11 10 10 9 9 9 9 10 10 9 9 9 10 9 9 9 9 10 9 8 7 6 6 6 7 6 6 5 6 6 6
3 2 5 5 4 6 6 6 5 6 7 5 7 10 9 7 5 6 5 5 8 7 8 9 9 9 9 10 11 11 10 9 9 9 8 8 9 9 9 11 13 10 7 10 12 14 16 14 8 5 13 25 26 19 17 16 14 15 17 17 17 15 12 11 11 12 11 11 10 11 10 10 10 11 11 10 9 9 10 9 9 9 10 10 10 9 8 7 7 8 8 7 7 7 7 7 7
3 3 5 5 4 5 4 5 5 6 7 6 6 8 7 3 3 6 6 6 6 5 6 8 8 10 10 9 9 9 8 7 7 7 7 8 9 10 9 9 12 10 7 8 9 11 13 13 10 11 17 23 22 16 15 14 13 13 13 16 17 14 12 11 11 11 11 11 10 11 12 11 11 11 11 11 10 10 10 10 10 9 10 10 10 9 9 8 8 8 8 9 8 8 9 9 8
7 7 7 6 4 3 4 5 5 5 7 6 6 7 4 3 5 5 6 6 4 3 5 7 8 10 9 8 7 7 7 7 7 7 8 9 10 11 11 10 11 11 10 10 10 12 12 12 12 13 16 16 13 11 11 11 10 10 11 14 15 13 12 11 10 10 10 11 11 12 12 11 10 11 11 11 11 10 10 10 10 10 9 9 9 9 9 8 8 8 8 9 9 9 9 9 9
4 7 9 9 7 6 6 7 6 5 6 5 6 7 2 4 4 4 5 4 2 3 6 8 9 9 9 8 8 8 7 7 8 9 9 10 11 12 12 11 11 11 12 12 13 14 12 11 11 11 11 9 8 8 8 8 7 8 9 11 12 12 10 9 10 10 10 11 12 12 13 11 10 10 11 11 11 11 11 10 10 10 10 9 9 9 8 8 8 8 7 7 7 7 7 7 7
Wind_Direction
165 165 160 168 178 189 193 216 231 191 237 247 229 241 167 141 57 208 254 225 229 104 268 281 199 227 241 335 241 53 24 9 10 4 115 85 149 146 145 147 147 146 142 140 146 150 153 154 151 148 147 146 144 144 146 146 148 149 150 150 151 151 149 147 148 150 148 146 144 144 144 141 139 135 132 130 132 137 141 140 138 137 138 137 136 137 134 134 133 133 132 130 130 131 127 125 125
176 170 165 174 188 205 186 210 247 190 216 238 229 234 122 122 172 217 5 19 59 82 109 118 139 158 257 347 57 192 58 48 44 63 83 120 139 138 145 148 148 145 140 140 143 147 152 155 152 150 148 146 146 145 145 148 149 151 153 155 156 156 156 154 153 151 147 146 145 147 146 145 142 137 134 129 128 134 139 140 140 141 142 141 140 140 139 138 137 138 137 136 135 136 132 130 130
185 176 173 183 194 223 202 200 248 226 215 236 230 191 133 171 169 71 41 73 85 105 137 125 131 123 210 195 161 291 95 72 63 82 111 137 136 143 148 147 148 144 140 141 144 148 151 155 154 150 148 147 147 146 146 147 149 151 152 153 154 154 155 153 151 149 148 148 148 148 146 145 143 142 143 140 135 134 136 138 140 142 144 143 142 142 142 141 141 142 140 140 139 138 136 133 131
181 190 191 192 191 221 213 204 241 247 229 236 226 138 164 208 134 73 60 90 109 141 148 143 136 52 303 151 108 23 92 82 75 101 128 138 140 150 150 146 149 146 142 142 146 150 152 156 155 151 149 147 147 146 147 147 149 150 151 152 151 151 150 150 149 149 149 149 149 147 146 147 147 149 149 146 143 138 138 137 137 138 140 141 141 143 145 144 143 143 144 142 141 143 139 134 131
181 195 206 218 210 211 220 219 235 245 239 245 247 112 157 165 87 72 74 111 174 171 147 165 135 93 44 57 8 346 80 89 107 120 127 127 140 149 150 148 150 151 147 145 148 148 153 156 154 153 150 148 147 147 147 148 150 151 152 152 150 150 149 150 149 149 150 149 148 146 146 146 149 153 149 146 143 143 143 140 140 137 134 135 138 142 142 143 144 145 147 145 146 147 140 135 134
176 181 205 241 263 282 233 222 222 233 239 271 298 109 123 82 38 355 50 219 220 212 190 208 160 135 124 68 43 40 32 83 124 133 134 136 145 148 150 151 154 155 151 147 147 147 153 155 153 153 150 149 148 147 148 149 151 151 151 151 150 149 150 150 150 149 149 148 146 143 144 146 149 149 144 144 143 144 146 143 142 139 133 130 131 136 138 141 144 144 147 150 149 148 145 142 138
176 174 188 226 235 228 234 225 227 228 212 270 296 105 92 7 345 297 270 230 210 210 207 218 203 153 124 120 106 63 2 292 140 146 140 140 145 148 153 155 156 155 153 149 145 147 153 155 153 152 151 150 150 149 149 150 151 151 152 151 150 150 151 150 151 150 149 148 145 142 143 145 146 143 141 144 143 140 143 143 139 138 133 125 125 130 136 139 141 146 150 151 147 150 154 149 139
191 193 183 212 201 201 235 235 236 237 141 67 280 303 326 323 303 277 269 241 195 192 199 196 202 184 119 157 140 73 57 78 131 137 135 142 145 150 156 157 157 155 154 151 145 148 155 156 154 153 152 152 151 151 151 151 152 152 152 152 151 152 153 153 154 152 150 149 145 142 141 143 143 141 142 142 141 140 141 142 139 134 127 121 123 127 133 137 142 150 151 150 149 155 161 157 148
199 210 183 219 217 204 234 239 236 244 252 300 256 285 317 296 277 270 262 241 217 206 195 184 203 197 139 154 117 98 104 109 126 132 137 145 148 152 156 159 158 155 155 152 145 148 155 156 155 155 153 153 153 153 154 154 154 154 153 153 154 154 155 157 156 154 152 150 147 144 141 142 142 141 141 137 136 143 142 136 133 126 120 119 122 127 132 138 144 149 145 146 150 155 163 167 165
197 215 200 221 228 216 229 234 231 231 245 268 272 321 312 279 272 267 257 243 218 203 176 172 201 185 154 142 111 116 125 130 137 137 142 145 149 153 157 161 158 155 155 150 143 146 153 155 156 156 154 155 156 156 156 157 157 156 155 155 156 156 156 156 156 154 152 150 148 146 143 143 143 142 140 137 138 142 137 128 128 126 122 121 123 128 132 137 142 147 144 142 149 155 167 167 161
199 207 215 222 225 226 227 227 219 196 161 226 217 34 326 288 277 263 252 245 220 188 159 174 186 162 150 131 111 121 129 145 148 143 145 146 151 155 159 160 157 156 153 147 141 144 151 154 156 155 154 156 157 158 156 156 157 157 157 157 155 155 155 155 155 154 153 153 152 150 147 146 143 143 141 141 142 139 136 131 134 132 126 123 126 130 135 140 143 151 149 146 155 160 170 163 156
214 187 208 225 223 227 234 246 226 197 188 207 133 41 346 282 269 259 242 230 210 178 168 182 165 153 150 126 121 131 144 159 150 146 146 148 153 156 160 158 155 153 149 145 140 144 151 154 158 156 157 159 159 158 156 155 156 158 160 159 156 155 155 154 155 155 157 154 150 147 143 143 142 144 143 144 145 141 142 139 138 134 127 126 130 135 143 151 154 161 158 157 167 169 173 169 168
231 195 209 225 238 243 245 261 243 240 215 177 43 13 348 280 273 274 253 219 196 179 171 174 153 156 144 118 130 140 155 160 147 149 149 150 153 151 156 155 153 150 145 142 139 146 153 155 159 161 161 161 160 158 156 156 156 159 159 158 156 154 152 152 156 158 155 146 140 137 135 139 142 147 146 144 146 143 141 137 136 131 126 129 133 137 144 149 153 160 164 167 173 178 181 179 175
231 216 229 232 242 250 251 251 230 233 206 115 47 354 356 2 322 282 237 193 177 166 148 147 159 163 141 128 149 161 160 157 150 152 151 149 149 150 153 153 152 151 150 146 143 150 158 162 162 162 162 161 161 159 159 160 159 159 157 156 155 153 151 151 155 153 145 138 134 133 133 136 141 147 145 144 145 140 135 130 129 126 125 130 132 138 143 143 142 144 148 155 167 182 184 182 177
234 242 242 244 242 236 236 241 248 237 175 92 43 340 352 50 335 228 201 181 146 119 129 136 174 186 170 164 169 169 160 155 153 152 151 147 147 151 152 152 153 154 156 152 150 154 159 166 167 165 162 161 162 163 164 164 164 162 155 153 155 154 152 151 153 149 142 138 135 134 135 136 140 147 146 145 144 138 134 133 130 128 128 130 132 140 146 145 143 137 127 126 140 164 177 178 175
235 250 233 243 242 228 218 216 241 236 132 86 46 337 329 82 6 155 65 187 128 129 156 141 131 316 205 179 144 155 153 151 151 149 149 148 146 149 151 150 150 153 155 154 155 157 161 165 168 169 169 168 165 168 171 167 165 160 151 150 154 157 155 154 153 148 142 138 136 136 135 133 137 142 142 143 143 141 139 139 137 136 135 133 134 140 145 146 145 139 128 120 119 137 160 169 169
218 243 232 234 233 225 215 202 215 207 111 91 56 359 347 89 73 93 109 180 137 142 161 122 103 345 45 90 125 144 147 148 149 149 150 150 148 149 153 150 147 149 151 155 156 155 159 162 163 166 171 172 168 172 172 166 163 155 149 149 154 161 159 155 154 148 142 141 142 140 134 135 140 140 142 143 142 144 141 139 139 140 140 139 140 142 144 144 144 144 138 127 118 124 139 155 164
204 225 227 231 229 221 223 214 226 60 96 77 52 11 353 67 103 128 154 153 137 148 140 127 110 77 83 97 126 141 144 148 151 153 153 155 155 153 156 156 156 153 151 156 157 154 155 158 159 162 167 169 167 171 170 166 163 153 150 151 157 164 158 154 155 148 145 149 149 145 142 145 148 148 151 148 143 146 142 137 139 141 144 147 146 148 150 148 146 147 144 136 126 119 118 138 164
215 226 227 234 235 217 236 264 305 329 26 33 47 12 354 27 94 164 177 151 153 165 149 148 126 109 110 115 136 144 145 151 157 161 159 162 163 160 160 163 163 157 156 157 158 158 156 159 162 163 164 164 164 168 168 164 161 158 159 159 163 166 158 155 156 152 152 154 153 150 151 153 152 154 158 153 149 149 143 139 141 142 147 151 154 159 161 160 157 150 147 142 122 110 117 147 170
220 231 232 234 235 236 229 239 244 338 344 335 16 356 343 17 28 205 190 160 170 174 156 169 155 139 137 136 149 150 151 157 164 168 167 169 167 165 164 164 164 158 154 156 159 158 158 162 161 159 158 162 169 169 162 157 159 164 169 168 169 166 158 157 157 155 158 158 157 156 155 155 153 153 157 156 152 150 146 145 144 146 151 155 159 165 171 173 170 157 145 138 123 113 136 165 173
211 219 240 251 226 236 212 195 223 309 325 307 328 308 300 14 337 241 195 170 175 173 156 172 169 155 152 153 161 160 160 165 173 176 173 172 169 168 165 162 161 154 152 158 161 159 161 163 154 151 152 165 178 170 155 153 158 162 172 175 173 167 158 157 159 158 162 161 160 161 160 158 155 152 156 156 153 154 153 154 155 155 159 161 162 169 179 180 175 165 152 142 141 140 145 159 173
216 216 242 273 225 234 198 169 224 291 291 285 294 292 345 337 288 264 224 183 150 143 138 156 165 158 159 161 165 168 170 172 179 182 177 173 168 164 158 155 153 148 153 164 164 159 161 161 150 148 150 165 179 166 149 159 166 163 174 176 173 167 153 155 163 162 166 165 163 165 163 161 160 159 160 161 162 165 165 168 172 169 170 171 172 180 183 183 180 172 161 151 150 148 147 158 174
228 218 226 239 234 242 238 207 218 265 270 269 288 317 338 284 252 283 250 195 76 21 1 120 156 154 157 160 168 174 177 179 183 184 178 168 160 153 149 152 155 155 161 167 161 156 160 159 153 153 154 163 174 163 152 168 177 170 170 171 171 170 160 166 173 169 169 170 170 168 168 168 172 172 168 168 170 175 179 180 180 176 180 182 184 187 183 183 180 170 162 157 157 156 154 162 173
230 227 205 219 232 241 251 253 238 253 267 273 300 299 284 262 251 241 240 201 52 339 318 226 155 149 157 162 173 179 181 182 182 184 174 153 146 148 152 158 162 162 161 161 155 155 163 162 159 160 158 162 171 164 155 165 173 166 168 174 183 182 178 182 182 177 172 174 178 173 175 178 183 188 180 172 174 185 188 185 184 183 186 189 191 189 182 179 175 169 167 165 162 159 158 162 169
225 234 208 207 223 234 244 251 250 255 259 258 272 268 258 260 287 262 225 184 54 317 243 186 156 152 163 167 175 183 183 177 175 176 147 129 147 157 160 160 161 164 158 157 156 161 167 164 163 161 158 165 169 157 151 161 161 159 168 177 188 194 191 189 185 182 176 181 186 181 187 190 197 204 191 175 180 195 194 191 194 193 197 199 195 193 186 178 174 171 168 167 162 156 157 162 168
216 227 224 215 225 232 238 244 246 248 244 240 247 245 229 231 270 243 212 155 125 178 169 166 158 161 168 167 177 183 177 170 163 144 121 141 160 154 138 126 141 159 153 156 165 168 170 167 165 162 162 169 167 152 152 171 173 167 169 174 187 195 192 187 184 185 184 186 186 190 199 198 206 213 198 180 195 212 206 201 210 218 218 212 204 198 189 181 174 171 169 165 161 156 154 160 170
204 223 229 232 238 235 237 244 242 244 236 225 238 242 199 165 234 221 174 145 158 167 161 162 164 167 169 167 176 178 170 165 153 134 135 154 153 135 122 131 141 139 141 162 184 177 173 172 168 165 164 165 169 161 157 170 181 182 175 176 188 189 184 179 181 191 191 186 179 195 204 202 207 210 211 209 207 215 220 213 213 227 230 220 223 214 184 180 169 165 169 163 159 158 152 156 168
195 218 225 231 238 234 235 241 237 237 230 217 230 244 191 176 223 212 139 145 172 168 162 168 171 168 168 169 170 173 168 165 156 146 153 160 156 147 140 147 149 144 156 181 203 193 180 177 173 167 164 162 170 173 164 168 176 182 179 178 182 175 175 173 179 202 191 182 199 209 214 204 187 190 229 228 216 216 230 233 222 224 226 216 222 216 188 183 162 154 164 161 160 157 151 153 161
214 214 230 221 224 231 227 229 225 222 215 191 209 231 207 197 215 183 131 150 167 171 170 168 174 169 167 168 167 172 169 165 159 155 162 166 169 166 155 151 151 150 161 174 192 208 193 182 178 168 166 166 171 177 174 176 177 176 172 168 166 161 169 164 182 216 187 194 224 225 237 238 197 230 238 234 228 228 233 242 236 230 229 215 205 196 194 188 162 153 160 158 160 158 154 151 151
216 213 241 223 219 229 216 212 206 211 198 160 198 231 214 203 203 167 143 166 169 173 179 171 174 169 166 169 169 171 169 165 154 153 163 162 163 165 161 158 157 155 160 168 183 208 201 185 181 172 170 173 175 178 175 180 181 171 162 153 149 153 162 161 197 238 216 234 258 259 269 275 229 234 236 233 233 236 233 237 240 238 238 226 202 187 187 185 168 158 160 161 163 162 158 154 154
212 205 229 230 238 217 186 190 196 202 175 167 208 238 230 199 181 165 158 173 178 182 181 175 174 169 167 170 172 167 157 153 147 153 162 157 155 160 163 164 163 162 164 169 179 201 205 189 182 174 173 177 175 176 176 179 178 162 149 141 143 151 160 165 200 258 274 276 275 291 300 146 205 233 232 225 227 231 231 232 238 242 244 239 225 193 186 184 170 158 160 162 164 166 161 156 157
208 207 213 218 235 197 165 177 198 204 168 180 210 233 238 188 154 159 165 175 187 191 182 177 176 169 167 169 173 163 141 134 144 158 164 161 163 163 167 171 172 173 172 172 177 198 209 193 183 178 175 177 172 172 175 171 165 155 142 135 139 140 146 152 158 294 328 35 122 107 5 129 248 255 229 217 216 218 226 225 228 237 236 234 238 207 191 178 160 154 157 160 166 177 175 164 161
201 216 222 205 213 212 175 171 195 212 172 182 212 235 238 149 138 160 170 180 190 194 186 179 176 169 170 173 175 170 151 141 148 162 168 170 174 172 177 180 181 182 177 176 178 199 213 197 185 182 175 174 169 166 169 160 156 152 138 130 127 123 128 127 95 22 2 25 85 117 142 194 284 273 208 212 197 189 204 209 220 238 235 223 210 193 186 158 150 155 152 162 178 189 192 176 169
192 210 225 205 209 223 192 161 177 200 198 198 208 232 244 138 137 168 175 186 193 197 190 177 176 174 175 177 181 180 168 163 163 164 170 178 183 179 182 183 186 186 180 182 184 199 214 203 188 184 172 168 164 160 159 153 157 154 139 131 121 114 108 90 70 39 30 44 55 101 134 165 235 220 171 172 170 168 183 194 201 225 235 217 193 190 194 164 156 157 155 171 189 197 199 181 171
194 199 214 205 209 226 214 163 157 181 205 214 204 217 237 207 160 173 180 190 197 198 191 178 176 177 179 184 187 184 177 182 182 174 173 179 186 186 185 184 187 188 185 188 189 198 211 203 186 181 170 163 160 159 157 157 168 165 145 128 114 105 96 87 84 67 55 79 90 107 122 149 210 205 157 160 166 164 183 205 197 196 226 219 205 210 214 200 165 158 170 182 194 201 197 175 165
205 196 211 211 199 213 215 157 127 177 206 212 211 215 230 223 191 183 182 186 196 195 186 183 179 178 184 188 191 189 186 187 184 182 181 181 187 189 186 185 186 191 192 191 191 195 201 191 176 176 174 163 158 163 162 160 165 162 154 146 136 128 122 118 111 103 95 86 93 108 118 131 178 189 165 161 153 158 182 217 198 184 211 208 213 224 221 219 184 173 190 193 202 203 188 173 167
219 199 214 218 205 204 201 158 114 176 230 216 218 223 230 230 202 183 179 181 193 193 187 190 186 181 184 190 193 190 189 181 171 177 181 183 185 183 185 187 187 192 193 191 188 186 187 185 177 173 174 168 164 166 165 163 162 162 164 160 148 141 140 134 127 117 107 95 88 94 108 120 121 110 127 140 134 143 168 201 201 193 205 192 199 217 209 205 189 184 193 197 207 203 186 178 174
226 215 212 211 217 207 173 141 122 155 242 222 209 224 231 225 198 179 178 183 193 195 193 194 190 185 185 192 194 187 184 172 164 171 177 184 185 180 185 189 190 190 188 187 186 182 181 183 181 174 172 173 170 168 168 167 166 166 163 155 145 139 138 133 126 118 110 104 97 93 102 113 112 106 108 124 126 124 147 182 205 192 189 178 179 194 190 184 183 182 185 194 209 211 200 187 181
223 218 215 212 211 201 141 120 147 171 238 227 194 221 224 197 189 187 185 188 191 193 197 198 194 189 186 190 193 188 180 168 165 173 177 183 184 183 186 190 195 192 183 184 187 186 184 183 182 178 172 173 172 171 171 167 164 162 153 147 144 139 131 120 116 115 111 106 102 100 104 108 113 114 111 114 120 124 145 165 180 180 168 167 176 184 181 180 182 181 184 195 206 206 204 197 193
223 216 217 212 191 204 186 143 160 175 243 264 221 223 207 166 178 189 190 190 181 187 200 205 202 195 190 191 193 190 183 178 178 181 180 181 184 187 190 192 196 191 183 187 191 189 187 184 182 177 172 172 170 169 168 163 158 153 146 142 137 134 130 123 119 115 112 108 105 105 106 113 117 114 114 114 113 116 130 151 161 171 172 172 183 185 178 179 182 181 183 193 204 201 196 201 201
215 219 226 220 185 213 229 131 153 179 203 241 234 225 201 174 180 178 179 182 176 186 201 206 205 200 193 190 195 193 190 189 184 183 183 181 185 190 193 193 194 191 187 190 192 191 188 185 183 178 174 172 167 167 167 162 159 154 147 144 138 135 134 133 131 124 123 121 114 113 116 125 122 111 109 106 102 99 99 119 138 160 175 175 178 176 170 171 174 180 186 193 207 209 199 201 202
207 213 229 242 211 211 218 142 179 210 193 192 221 231 196 172 181 176 167 175 183 189 200 204 199 197 195 191 194 194 193 195 189 187 187 185 187 190 195 196 192 192 193 193 192 192 190 186 186 182 177 174 169 168 169 166 163 159 154 152 151 148 144 142 141 136 136 131 122 121 124 130 125 115 105 90 93 102 106 113 116 166 196 182 182 180 167 167 172 177 188 198 204 202 198 198 194
211 194 212 231 230 214 216 198 208 227 194 161 215 247 198 166 179 173 167 179 185 188 202 206 197 195 198 195 193 191 192 194 190 191 190 189 190 190 194 197 195 194 194 193 194 194 190 187 188 186 179 175 172 169 171 171 166 164 161 158 153 150 146 142 141 139 135 130 126 127 128 132 132 123 112 91 92 99 100 108 120 130 151 172 193 197 181 180 179 172 181 198 197 191 193 195 187
207 156 194 212 213 212 216 216 221 233 138 150 208 248 229 176 167 159 168 184 187 192 202 204 199 195 195 195 192 190 189 188 188 191 192 191 194 193 193 196 199 198 191 189 192 193 190 188 188 185 179 176 173 171 173 172 167 167 166 157 148 147 146 143 143 139 132 128 126 126 127 130 135 128 118 108 101 96 89 97 118 120 120 140 157 175 173 166 161 154 165 183 187 191 199 198 190
105 114 193 204 204 214 216 223 226 212 217 204 195 226 233 182 146 143 173 191 192 196 197 197 198 192 190 194 193 191 187 186 188 188 188 190 194 195 194 197 199 195 188 186 187 186 186 187 184 178 172 171 172 171 172 170 166 168 167 158 149 141 139 142 142 139 134 130 129 128 127 127 131 126 117 117 107 94 90 93 119 126 117 123 120 118 116 108 118 137 157 171 175 189 205 202 192
81 124 178 179 189 209 216 231 225 191 231 228 178 200 240 187 152 161 184 193 189 184 180 183 193 192 192 194 192 190 185 183 187 185 185 188 190 192 192 193 191 184 179 177 175 179 182 182 177 169 163 160 165 169 168 166 165 168 167 159 148 137 137 143 142 143 143 137 134 133 133 132 132 130 122 121 112 98 91 84 110 126 115 113 107 100 100 99 112 134 150 165 168 174 187 194 188
145 175 173 168 182 193 210 232 231 210 227 215 164 205 257 206 169 172 167 156 139 145 149 143 152 176 193 200 196 192 185 181 184 181 177 180 184 186 185 183 179 169 161 162 169 180 182 179 171 161 151 149 156 165 167 164 163 166 164 157 150 142 143 147 146 150 151 143 141 138 137 135 129 131 131 126 115 98 88 75 96 120 114 106 98 87 85 86 101 129 141 153 162 166 171 178 177
210 202 187 181 186 190 205 206 212 229 226 170 139 203 246 225 173 148 117 86 60 50 102 102 90 94 149 205 205 196 187 181 183 178 171 172 174 177 178 174 160 132 109 106 137 178 184 186 173 153 141 143 153 165 169 165 161 161 158 157 155 148 147 151 152 155 154 148 145 140 137 136 130 132 136 129 117 97 92 88 99 119 115 102 88 78 74 72 76 100 124 134 145 152 155 163 165
212 211 197 197 196 195 209 202 206 225 213 123 128 209 230 218 124 107 97 79 58 29 26 37 21 360 17 212 207 196 189 181 179 174 166 161 162 173 174 154 125 101 86 59 32 29 36 44 89 105 123 146 156 163 162 154 152 151 151 155 157 153 151 153 152 152 154 150 147 143 139 138 137 138 136 128 118 102 97 101 105 113 109 95 83 77 80 78 76 91 103 110 115 120 131 141 151
205 205 201 210 207 199 209 208 212 217 177 114 127 213 222 198 112 77 72 63 51 43 41 40 20 343 345 322 185 181 182 180 174 166 158 159 162 164 155 139 128 123 119 103 71 60 62 60 54 45 31 30 137 139 131 125 131 142 155 163 165 160 155 157 155 154 156 149 145 145 139 137 141 139 133 122 113 104 101 103 101 96 92 87 84 86 93 88 86 101 97 93 97 96 103 115 125
204 210 212 223 226 216 220 223 226 223 191 138 145 201 223 202 119 63 58 63 60 59 60 66 70 61 70 109 137 148 157 159 152 145 144 151 147 139 136 139 139 138 134 122 109 102 103 102 78 43 333 309 356 116 128 136 150 164 175 177 171 164 159 160 157 152 151 147 142 142 135 136 141 138 132 120 109 107 106 106 102 96 91 90 90 94 100 95 94 104 95 87 92 92 95 103 109
198 219 223 227 240 232 221 249 303 257 225 174 175 211 232 163 107 85 82 77 71 66 68 73 74 76 86 99 106 114 124 125 121 125 135 140 136 134 140 144 139 134 123 110 112 117 124 132 139 198 226 228 219 189 176 177 181 180 182 181 172 165 161 160 158 153 150 145 142 140 134 136 141 138 133 124 114 111 109 108 103 99 95 94 96 98 101 99 95 98 96 92 92 90 95 100 103
179 210 220 207 284 253 228 158 96 285 250 202 182 212 183 150 144 118 114 88 70 62 63 67 69 78 86 91 99 108 114 116 119 128 133 134 133 126 116 108 109 115 109 105 117 131 135 135 145 205 245 229 209 205 203 201 200 194 189 185 178 171 167 165 163 156 150 145 141 137 135 140 145 141 136 129 123 116 112 109 104 101 99 98 100 101 102 104 99 97 101 100 95 93 96 95 97
200 210 205 139 50 247 242 233 185 209 237 203 184 216 203 187 179 133 120 78 57 54 60 66 72 82 89 94 101 103 104 108 114 118 113 110 108 99 94 90 83 84 99 109 126 145 143 139 146 200 266 251 225 206 204 210 212 206 199 193 187 180 174 172 164 155 152 151 146 141 143 149 151 147 143 139 133 126 118 115 111 107 104 102 102 104 108 109 107 107 108 105 100 100 101 98 99
271 249 189 179 222 216 208 230 223 212 227 216 199 213 214 208 182 136 119 60 47 53 66 72 77 86 92 96 96 94 97 105 109 110 104 94 88 84 91 96 88 79 85 108 136 156 146 142 158 203 245 247 238 218 207 210 206 202 201 199 194 185 177 176 166 159 160 157 152 150 153 157 157 154 151 148 144 137 130 125 121 116 111 108 106 107 109 113 114 116 116 114 110 110 109 107 106
230 256 203 204 245 234 211 223 230 229 232 223 206 209 213 208 118 106 94 55 43 56 75 79 82 88 90 91 96 98 101 103 105 107 101 88 82 80 80 87 92 96 100 114 139 150 140 147 178 212 225 230 229 220 211 206 199 196 195 194 192 185 180 182 174 168 164 157 156 159 160 164 164 159 157 156 153 147 142 137 133 128 122 118 116 114 113 116 120 122 123 124 123 122 119 117 117
201 214 208 204 212 232 241 230 230 250 245 225 217 217 197 84 59 68 69 56 41 58 95 102 98 92 90 91 98 103 101 97 96 99 95 85 80 78 75 76 86 104 120 131 136 132 135 153 179 211 223 216 208 208 207 203 200 196 187 185 187 183 182 184 178 171 164 157 160 164 164 168 169 163 161 159 156 153 150 146 142 138 133 128 124 121 119 119 120 122 125 127 130 132 127 125 129
233 222 218 216 211 212 230 225 211 233 251 245 238 231 159 73 44 52 58 58 92 140 124 120 116 108 102 94 87 88 93 94 93 95 92 87 86 86 87 91 95 103 113 118 118 119 128 149 176 205 216 203 191 194 192 194 198 194 183 183 185 182 182 182 174 166 161 161 166 169 169 170 172 171 166 161 159 157 155 151 148 145 141 138 133 128 126 125 124 123 123 126 131 132 128 128 129